Weather in Rotterdam

Netherlands     51°54′47″N   4°28′03″E
temp.,
°C
wind,
m/s
gust,
m/s
humid.,
%
clouds,
%
prec.,
mm/h
press.,
hPa
HPBL,
m
26 june, sun
sun2623:00+16se2397100 1.8 1011117
02:00+15sw2797100 2.9 1012423
05:00+14s2695100 0.0 1012219
08:00+15ssw3789100 0.0 1014388
11:00+18ssw4662100 0.0 1015946
14:00+20ssw465199 0.0 10151544
17:00+22ssw4645100 0.0 10151967
20:00+19wsw1157100 0.0 101532
27 june, mon
mon2723:00+16nne2268100 0.0 101646
02:00+16ene1173100 0.0 101529
05:00+16s2277100 0.0 101557
08:00+17ssw237199 0.0 1015183
11:00+21wsw455493 0.0 10151125
14:00+17nw4665100 0.8 1017493
17:00+20w45471 0.0 10181188
20:00+18wsw36575 0.0 1019786
28 june, tue
tue2823:00+14sw24715 0.0 1021130
02:00+13ssw35845 0.0 1020107
05:00+12ssw35865 0.0 1021131
08:00+15ssw34730 0.0 1021304
11:00+19ssw46455 0.0 10211131
14:00+22sw46415 0.0 10201806
17:00+24ssw2537100 0.0 10182132
20:00+23e1350100 0.0 1017149
29 june, wed
wed2923:00+18e356886 0.0 1017113
02:00+16se23696 0.0 101659
05:00+15se236852 0.0 101558
08:00+18s3663100 0.0 1015183
11:00+23ssw344698 0.0 1015764
14:00+26sw35370 0.0 10151929
17:00+27sw24324 0.0 10142249
20:00+23nnw4552100 0.0 1013245
30 june, thu
thu3023:00+18n25720 0.0 1014104
02:00+17ne24800 0.0 101372
05:00+16e23860 0.0 101261
08:00+20se12730 0.0 1012180
11:00+26sse23475 0.0 1011776
14:00+29se363877 0.0 10102036
17:00+25wnw655298 0.0 1009559
20:00+19nnw3691100 3.8 1008207